星链-5775 (STARLINK-5775 )

导读 | 豆包AI

STARLINK-5775是美国太空探索技术公司于北京时间2023年5月14日8点发射的星链卫星,隶属于SpaceX星链星座低轨互联网项目。星链星座旨在为全球提供高速低延迟宽带互联网服务,该卫星是星链扩容组网的一环,补充提升了星座覆盖密度与服务能力。

Basic Information
目录编号:
56503
目录名称:
STARLINK-5775
国际标识:
2023-065A
轨道中心:
EARTH
卫星名称:
星链-5775
卫星全名:
星链-5775 (STARLINK-5775 )
卫星状态:
在轨 (已飞行1082 天)
发射日期:
2023-05-14 UTC
国别 :
美国 (US)
星等 :
--
Orbit Information
数据来源 国际轨道数据 AOE轨道数据
星历时间 2026-04-30T03:54:23+0800
15小时前
查看轨道信息
2026-04-26T12:00:00+0800
4天前
查看轨道信息
半长轴 6864.159km 6863.696km
偏心率 0.0001344 0.000038
轨道倾角 43.004° 43.005°
近地点辐角 144.239° 325.580°
升交点赤经 283.442° 304.102°
平近点角 215.855° 40.144°
近地点 485.099km 485.298km
远地点 486.945km 485.82km
周期 94.328分钟 94.318分钟
每日圈数 15.265879 15.267425
Detailed Information
固有亮度:
5
最大亮度:
2.5
卫星平台:
Starlink v1.5
覆盖范围:
全球
运营商:
太空探索技术公司
运营商所在国:
美国
制造商(研发单位):
太空探索技术公司
制造商所在国:
美国
使用方式:
暂无
Satellite Introduction
星链(Starlink)计划是由太空探索技术公司(SpaceX)提出的一个巨型低轨卫星互联网星座项目,计划在2019年至2024年间在太空搭建由约1.2万颗卫星组成的“星链”网络,其中1584颗将部署在地球上空550千米处的近地轨道,并从2020年开始工作。该卫星仍在工作。
2D Orbit Map
3D Orbit Map
Orbit Altitude Analysis Chart
Orbit Inclination Analysis Chart
Orbit Comprehensive Analysis Chart
View Comprehensive Chart